{"data":{"norad_id":63291,"epoch":"2026-05-25T04:24:24.367104Z","epoch_age_seconds":52950,"freshness":"FRESH","line1":"1 63291U 25055A   26145.18361536  .00008250  00000+0  42891-3 0  9990","line2":"2 63291  97.6503 284.8832 0015030 218.5467 141.4694 15.16238460 65567","mean_motion":15.1623846,"eccentricity":0.001503,"inclination_deg":97.6503,"raan_deg":284.8832,"arg_perigee_deg":218.5467,"mean_anomaly_deg":141.4694,"bstar":0.00042891,"rev_number":6556,"period_min":94.971868738905,"perigee_km":506.85753741119,"apogee_km":527.58498434339,"semimajor_km":6895.3582608773,"source":"CELESTRAK","updated_at":"2026-05-25T13:38:03.619376Z"}}